,,PA_Meas_PMT16A,,PR_Meas_QMR101_102,,RH_Meas_QMH101,,SR_Meas_QMS101,,TA_Meas_QMH101,,GenWind,,GenWind,
time,status,PA,status,PR,status,RH,status,SR,status,TA,status,DirAvg,status,SpdAvg,
2012-10-15, 07:02:04,VALID,917.78,VALID,0,VALID,94.2407,VALID,54.3652,VALID,19.3323,VALID,142,VALID,0,
2012-10-15, 07:03:04,INVALID,919.984,VALID,0,VALID,94.1644,VALID,55.5471,VALID,19.3533,VALID,119,VALID,0,
2012-10-15, 07:04:04,VALID,918.107,VALID,0,VALID,93.8595,VALID,56.8364,VALID,19.3923,VALID,105,VALID,0,
2012-10-15, 07:05:04,VALID,918.874,VALID,0,VALID,93.6765,VALID,58.1257,VALID,19.4523,VALID,105,VALID,0,
2012-10-15, 07:06:04,VALID,917.876,VALID,0,VALID,93.646,VALID,59.7373,VALID,19.4718,VALID,115,VALID,0,
2012-10-15, 07:07:04,VALID,917.571,VALID,0,VALID,93.6308,VALID,61.2415,VALID,19.4718,VALID,116,VALID,0,
2012-10-15, 07:08:04,VALID,918.134,VALID,0,VALID,93.7604,VALID,62.8531,VALID,19.4703,VALID,116,VALID,0,
2012-10-15, 07:09:04,VALID,918.671,VALID,0,VALID,93.8595,VALID,64.5721,VALID,19.4913,VALID,116,VALID,0,
2012-10-15, 07:10:04,VALID,918.589,VALID,0,VALID,93.7604,VALID,66.0763,VALID,19.4718,VALID,116,VALID,0,
2012-10-15, 07:11:04,VALID,919.053,VALID,0,VALID,94.073,VALID,67.7954,VALID,19.4913,VALID,116,VALID,0,
2012-10-15, 07:12:04,VALID,918.157,VALID,0,VALID,94.3626,VALID,69.6219,VALID,19.5303,VALID,116,VALID,0,
2012-10-15, 07:13:04,VALID,918.69,VALID,0,VALID,94.6218,VALID,71.2335,VALID,19.5498,VALID,116,VALID,0,
2012-10-15, 07:14:04,VALID,918.98,VALID,0,VALID,94.8277,VALID,70.9112,VALID,19.5303,VALID,116,VALID,0,
2012-10-15, 07:15:04,VALID,919.075,VALID,0,VALID,95.0411,VALID,73.3823,VALID,19.4898,VALID,116,VALID,0,
2012-10-15, 07:16:04,VALID,918.85,VALID,0,VALID,95.2241,VALID,76.6055,VALID,19.4313,VALID,116,VALID,0,
2012-10-15, 07:17:04,VALID,919.105,VALID,0,VALID,95.2851,VALID,78.6469,VALID,19.3713,VALID,115,VALID,0,
2012-10-15, 07:18:04,VALID,919.586,VALID,0,VALID,95.3842,VALID,80.5809,VALID,19.3728,VALID,116,VALID,0,
2012-10-15, 07:19:04,VALID,919.023,VALID,0,VALID,95.4299,VALID,82.5148,VALID,19.3518,VALID,116,VALID,0,
2012-10-15, 07:20:04,VALID,919.107,VALID,0,VALID,95.59,VALID,84.3413,VALID,19.3923,VALID,116,VALID,0,
2012-10-15, 07:21:04,VALID,918.645,VALID,0,VALID,95.7654,VALID,86.1678,VALID,19.3908,VALID,116,VALID,0,
2012-10-15, 07:22:04,VALID,919.164,VALID,0,VALID,95.9331,VALID,88.2092,VALID,19.4298,VALID,116,VALID,0,
2012-10-15, 07:23:04,VALID,919.109,VALID,0,VALID,96.0474,VALID,90.1431,VALID,19.4883,VALID,116,VALID,0,
2012-10-15, 07:24:04,VALID,919.023,VALID,0,VALID,96.1541,VALID,92.0771,VALID,19.5483,VALID,116,VALID,0,
2012-10-15, 07:25:04,VALID,919.457,VALID,0,VALID,96.2075,VALID,94.1184,VALID,19.5663,VALID,116,VALID,0,
2012-10-15, 07:26:04,VALID,919.065,VALID,0,VALID,96.238,VALID,96.0524,VALID,19.6053,VALID,116,VALID,0,
2012-10-15, 07:27:04,VALID,919.119,VALID,0,VALID,96.116,VALID,97.8789,VALID,19.6053,VALID,116,VALID,0,
2012-10-15, 07:28:04,VALID,919.154,VALID,0,VALID,96.1389,VALID,99.8128,VALID,19.6458,VALID,116,VALID,0,
2012-10-15, 07:29:04,VALID,919.148,VALID,0,VALID,96.2456,VALID,101.639,VALID,19.6443,VALID,115,VALID,0,
2012-10-15, 07:30:04,VALID,919.148,VALID,0,VALID,96.1923,VALID,103.466,VALID,19.7043,VALID,116,VALID,0,
2012-10-15, 07:31:04,VALID,919.142,VALID,0,VALID,96.2609,VALID,105.292,VALID,19.6833,VALID,116,VALID,0,
2012-10-15, 07:32:04,VALID,919.176,VALID,0,VALID,96.2075,VALID,107.011,VALID,19.7238,VALID,116,VALID,0,
2012-10-15, 07:33:04,VALID,919.224,VALID,0,VALID,96.2228,VALID,108.623,VALID,19.7628,VALID,116,VALID,0,
2012-10-15, 07:34:04,VALID,919.195,VALID,0,VALID,96.1618,VALID,110.45,VALID,19.7223,VALID,116,VALID,0,
2012-10-15, 07:35:04,VALID,919.247,VALID,0,VALID,96.2304,VALID,112.061,VALID,19.7823,VALID,115,VALID,0,
2012-10-15, 07:36:04,VALID,919.068,VALID,0,VALID,96.1618,VALID,113.136,VALID,19.7823,VALID,115,VALID,0,
2012-10-15, 07:37:04,VALID,919.293,VALID,0,VALID,96.2151,VALID,110.987,VALID,19.8018,VALID,67,VALID,0,
2012-10-15, 07:38:04,VALID,919.316,VALID,0,VALID,96.0169,VALID,112.813,VALID,19.7823,VALID,24,VALID,0,
2012-10-15, 07:39:04,VALID,919.293,VALID,0,VALID,96.0169,VALID,116.144,VALID,19.7628,VALID,24,VALID,0,
2012-10-15, 07:40:04,VALID,919.43,VALID,0,VALID,96.1313,VALID,118.4,VALID,19.7628,VALID,24,VALID,0,
2012-10-15, 07:41:04,VALID,919.333,VALID,0,VALID,95.9026,VALID,121.516,VALID,19.7433,VALID,24,VALID,0,
2012-10-15, 07:42:04,VALID,919.415,VALID,0,VALID,95.8263,VALID,123.88,VALID,19.6653,VALID,24,VALID,0,
2012-10-15, 07:43:04,VALID,919.373,VALID,0,VALID,95.9407,VALID,125.921,VALID,19.6653,VALID,24,VALID,0,
2012-10-15, 07:44:04,VALID,919.407,VALID,0,VALID,96.1084,VALID,127.533,VALID,19.6848,VALID,24,VALID,0,
2012-10-15, 07:45:04,VALID,919.442,VALID,0,VALID,96.2837,VALID,129.252,VALID,19.7223,VALID,24,VALID,0,
2012-10-15, 07:46:04,VALID,919.431,VALID,0,VALID,96.1084,VALID,131.078,VALID,19.7628,VALID,24,VALID,0,
2012-10-15, 07:47:04,VALID,919.47,VALID,0,VALID,96.1999,VALID,132.69,VALID,19.8033,VALID,24,VALID,0,
2012-10-15, 07:48:04,VALID,919.497,VALID,0,VALID,96.2761,VALID,134.516,VALID,19.8408,VALID,24,VALID,0,
2012-10-15, 07:49:04,VALID,919.576,VALID,0,VALID,96.299,VALID,136.343,VALID,19.8798,VALID,24,VALID,0,
2012-10-15, 07:50:04,VALID,919.506,VALID,0,VALID,96.2456,VALID,138.169,VALID,19.9188,VALID,24,VALID,0,
2012-10-15, 07:51:04,VALID,919.501,VALID,0,VALID,95.9559,VALID,140.211,VALID,19.8993,VALID,24,VALID,0,
2012-10-15, 07:52:04,VALID,918.847,VALID,0,VALID,95.9483,VALID,142.36,VALID,19.9188,VALID,25,VALID,0,
2012-10-15, 07:53:04,VALID,919.528,VALID,0,VALID,95.895,VALID,144.508,VALID,19.9578,VALID,25,VALID,0,
2012-10-15, 07:54:04,VALID,919.551,VALID,0,VALID,95.7501,VALID,147.087,VALID,19.9383,VALID,25,VALID,0,
2012-10-15, 07:55:04,VALID,919.536,VALID,0,VALID,95.8873,VALID,149.666,VALID,19.9578,VALID,25,VALID,0,
2012-10-15, 07:56:04,VALID,919.6,VALID,0,VALID,95.8797,VALID,152.459,VALID,19.9968,VALID,25,VALID,0,
2012-10-15, 07:57:04,VALID,919.589,VALID,0,VALID,95.9102,VALID,155.252,VALID,20.0553,VALID,25,VALID,0,
2012-10-15, 07:58:04,VALID,919.469,VALID,0,VALID,95.9483,VALID,158.261,VALID,20.1334,VALID,95,VALID,0,
2012-10-15, 07:59:04,VALID,919.597,VALID,0,VALID,95.6434,VALID,161.377,VALID,20.1529,VALID,152,VALID,0,
2012-10-15, 08:00:04,VALID,919.624,VALID,0,VALID,95.6815,VALID,164.492,VALID,20.1724,VALID,156,VALID,0,
2012-10-15, 08:01:04,VALID,919.665,VALID,0,VALID,94.9039,VALID,167.608,VALID,20.1334,VALID,154,VALID,0,
2012-10-15, 08:02:04,VALID,919.625,VALID,0,VALID,94.538,VALID,170.294,VALID,20.2114,VALID,163,VALID,0,
2012-10-15, 08:03:04,VALID,919.668,VALID,0,VALID,93.9434,VALID,172.765,VALID,20.2489,VALID,145,VALID,0,
2012-10-15, 08:04:04,VALID,919.649,VALID,0,VALID,92.3501,VALID,175.022,VALID,20.3269,VALID,147,VALID,0,
2012-10-15, 08:05:04,VALID,919.678,VALID,0,VALID,90.9092,VALID,177.278,VALID,20.3854,VALID,118,VALID,0,
2012-10-15, 08:06:04,VALID,919.706,VALID,0,VALID,90.9778,VALID,179.104,VALID,20.5235,VALID,133,VALID,0,
2012-10-15, 08:07:04,VALID,919.706,VALID,0,VALID,89.8496,VALID,180.823,VALID,20.5625,VALID,143,VALID,0,
2012-10-15, 08:08:04,VALID,919.681,VALID,0,VALID,88.8128,VALID,181.898,VALID,20.621,VALID,131,VALID,0.28125,
2012-10-15, 08:09:04,VALID,919.707,VALID,0,VALID,89.8877,VALID,183.509,VALID,20.678,VALID,119,VALID,0,
2012-10-15, 08:10:04,VALID,919.689,VALID,0,VALID,88.0657,VALID,184.584,VALID,20.7381,VALID,92,VALID,0.0117188,
2012-10-15, 08:11:04,VALID,919.721,VALID,0,VALID,88.3249,VALID,185.766,VALID,20.7755,VALID,121,VALID,0,
2012-10-15, 08:12:04,VALID,919.727,VALID,0,VALID,88.6756,VALID,186.518,VALID,20.8145,VALID,72,VALID,0,
2012-10-15, 08:13:04,VALID,919.747,VALID,0,VALID,87.9285,VALID,187.377,VALID,20.8535,VALID,97,VALID,0.003125,
2012-10-15, 08:14:04,VALID,919.733,VALID,0,VALID,87.6769,VALID,188.237,VALID,20.8925,VALID,100,VALID,0,
2012-10-15, 08:15:04,VALID,919.77,VALID,0,VALID,87.6617,VALID,189.956,VALID,20.912,VALID,129,VALID,0,
2012-10-15, 08:16:04,VALID,919.785,VALID,0,VALID,87.4558,VALID,191.353,VALID,20.9316,VALID,115,VALID,0,
2012-10-15, 08:17:04,VALID,919.809,VALID,0,VALID,87.9895,VALID,192.642,VALID,20.9511,VALID,112,VALID,0,
2012-10-15, 08:18:04,VALID,919.826,VALID,0,VALID,86.7011,VALID,194.039,VALID,20.9706,VALID,143,VALID,0,
2012-10-15, 08:19:04,VALID,919.838,VALID,0,VALID,88.1267,VALID,195.65,VALID,21.0486,VALID,112,VALID,0,
2012-10-15, 08:20:04,VALID,919.827,VALID,0,VALID,87.9437,VALID,197.262,VALID,21.1087,VALID,185,VALID,0,
2012-10-15, 08:21:04,VALID,919.842,VALID,0,VALID,88.1496,VALID,199.088,VALID,21.1234,VALID,90,VALID,0,
2012-10-15, 08:22:04,VALID,919.859,VALID,0,VALID,87.2652,VALID,200.378,VALID,21.1445,VALID,170,VALID,0,
2012-10-15, 08:23:04,VALID,919.895,VALID,0,VALID,87.7608,VALID,201.237,VALID,21.2047,VALID,203,VALID,0,
2012-10-15, 08:24:04,VALID,919.925,VALID,0,VALID,87.4558,VALID,202.204,VALID,21.2437,VALID,178,VALID,0,
2012-10-15, 08:25:04,VALID,919.93,VALID,0,VALID,86.6325,VALID,203.171,VALID,21.2632,VALID,202,VALID,0,
2012-10-15, 08:26:04,VALID,919.95,VALID,0,VALID,86.6325,VALID,204.138,VALID,21.2843,VALID,158,VALID,0,
2012-10-15, 08:27:04,VALID,919.974,VALID,0,VALID,86.8002,VALID,204.783,VALID,21.3412,VALID,172,VALID,0,
2012-10-15, 08:28:04,VALID,919.966,VALID,0,VALID,84.8944,VALID,205.535,VALID,21.2437,VALID,140,VALID,0,
2012-10-15, 08:29:04,VALID,919.994,VALID,0,VALID,84.8639,VALID,205.857,VALID,21.3412,VALID,156,VALID,0,
2012-10-15, 08:30:04,VALID,919.994,VALID,0,VALID,85.1154,VALID,206.932,VALID,21.3803,VALID,128,VALID,0,
2012-10-15, 08:31:04,VALID,920.014,VALID,0,VALID,85.4432,VALID,208.221,VALID,21.4388,VALID,147,VALID,0,
2012-10-15, 08:32:04,VALID,920.04,VALID,0,VALID,84.7343,VALID,209.295,VALID,21.4404,VALID,110,VALID,0,
2012-10-15, 08:33:04,VALID,920.063,VALID,0,VALID,85.8854,VALID,210.37,VALID,21.499,VALID,161,VALID,0,
2012-10-15, 08:34:04,VALID,920.074,VALID,0,VALID,84.5666,VALID,211.337,VALID,21.499,VALID,141,VALID,0,
2012-10-15, 08:35:04,VALID,920.115,VALID,0,VALID,85.5042,VALID,212.948,VALID,21.5754,VALID,149,VALID,0,
2012-10-15, 08:36:04,VALID,920.15,VALID,0,VALID,86.0912,VALID,213.915,VALID,21.5949,VALID,118,VALID,0,
2012-10-15, 08:37:04,VALID,920.131,VALID,0,VALID,85.832,VALID,214.56,VALID,21.6534,VALID,140,VALID,0,
2012-10-15, 08:38:04,VALID,920.172,VALID,0,VALID,86.785,VALID,215.312,VALID,21.712,VALID,150,VALID,0,
2012-10-15, 08:39:04,VALID,920.141,VALID,0,VALID,84.4903,VALID,216.064,VALID,21.712,VALID,134,VALID,0,
2012-10-15, 08:40:04,VALID,920.155,VALID,0,VALID,85.3136,VALID,216.709,VALID,21.751,VALID,86,VALID,0,
2012-10-15, 08:41:04,VALID,920.172,VALID,0,VALID,85.9388,VALID,217.353,VALID,21.7721,VALID,90,VALID,0,
2012-10-15, 08:42:04,VALID,920.181,VALID,0,VALID,85.6796,VALID,218.643,VALID,21.8095,VALID,90,VALID,0,
2012-10-15, 08:43:04,VALID,920.134,VALID,0,VALID,85.1459,VALID,220.039,VALID,21.8485,VALID,91,VALID,0,
2012-10-15, 08:44:04,VALID,920.146,VALID,0,VALID,83.3011,VALID,221.114,VALID,21.8859,VALID,138,VALID,0,
2012-10-15, 08:45:04,VALID,920.156,VALID,0,VALID,83.019,VALID,222.511,VALID,21.9461,VALID,129,VALID,0,
2012-10-15, 08:46:04,VALID,920.144,VALID,0,VALID,82.9885,VALID,225.197,VALID,22.0047,VALID,101,VALID,0,
2012-10-15, 08:47:04,VALID,920.174,VALID,0,VALID,84.2692,VALID,228.42,VALID,22.1022,VALID,101,VALID,0,
2012-10-15, 08:48:04,VALID,920.16,VALID,0,VALID,82.7141,VALID,230.998,VALID,22.1608,VALID,195,VALID,0,
2012-10-15, 08:49:04,VALID,920.177,VALID,0,VALID,83.7051,VALID,233.685,VALID,22.2193,VALID,103,VALID,0,
2012-10-15, 08:50:04,VALID,920.166,VALID,0,VALID,83.4917,VALID,237.123,VALID,22.2583,VALID,173,VALID,0,
2012-10-15, 08:51:04,VALID,920.173,VALID,0,VALID,82.3329,VALID,241.635,VALID,22.2974,VALID,145,VALID,0,
2012-10-15, 08:52:04,VALID,920.194,VALID,0,VALID,83.0571,VALID,246.47,VALID,22.2957,VALID,141,VALID,0,
2012-10-15, 08:53:04,VALID,920.185,VALID,0,VALID,82.1652,VALID,250.338,VALID,22.2957,VALID,167,VALID,0,
2012-10-15, 08:54:04,VALID,920.17,VALID,0,VALID,82.5082,VALID,259.255,VALID,22.3347,VALID,174,VALID,0,
2012-10-15, 08:55:04,VALID,920.184,VALID,0,VALID,83.2629,VALID,278.595,VALID,22.3152,VALID,163,VALID,0,
2012-10-15, 08:56:04,VALID,920.183,VALID,0,VALID,82.4091,VALID,286.223,VALID,22.3542,VALID,164,VALID,0,
2012-10-15, 08:57:04,VALID,920.209,VALID,0,VALID,82.2795,VALID,293.422,VALID,22.3737,VALID,154,VALID,0,
2012-10-15, 08:58:04,VALID,920.203,VALID,0,VALID,82.371,VALID,294.604,VALID,22.3737,VALID,170,VALID,0,
2012-10-15, 08:59:04,VALID,920.227,VALID,0,VALID,83.4459,VALID,295.033,VALID,22.4535,VALID,137,VALID,0,
2012-10-15, 09:00:04,VALID,920.228,VALID,0,VALID,81.2656,VALID,295.571,VALID,22.5706,VALID,131,VALID,0,
2012-10-15, 09:01:04,VALID,920.271,VALID,0,VALID,82.2414,VALID,295.463,VALID,22.5121,VALID,129,VALID,0,
2012-10-15, 09:02:04,VALID,920.282,VALID,0,VALID,81.3876,VALID,296.323,VALID,22.5316,VALID,103,VALID,0,
2012-10-15, 09:03:04,VALID,920.279,VALID,0,VALID,81.2961,VALID,296.43,VALID,22.6487,VALID,109,VALID,0,
2012-10-15, 09:04:04,VALID,920.299,VALID,0,VALID,83.2706,VALID,293.314,VALID,22.7463,VALID,114,VALID,0,
2012-10-15, 09:05:04,VALID,920.301,VALID,0,VALID,80.4728,VALID,295.248,VALID,22.7267,VALID,123,VALID,0,
2012-10-15, 09:06:04,VALID,920.31,VALID,0,VALID,81.5934,VALID,297.612,VALID,22.6877,VALID,129,VALID,0,
2012-10-15, 09:07:04,VALID,920.326,VALID,0,VALID,81.8298,VALID,298.901,VALID,22.6682,VALID,104,VALID,0,
2012-10-15, 09:08:04,VALID,920.353,VALID,0,VALID,81.0598,VALID,300.943,VALID,22.7267,VALID,107,VALID,0,
2012-10-15, 09:09:04,VALID,920.344,VALID,0,VALID,80.2593,VALID,303.629,VALID,22.7267,VALID,92,VALID,0,
2012-10-15, 09:10:04,VALID,920.343,VALID,0,VALID,82.432,VALID,307.174,VALID,22.7658,VALID,92,VALID,0,
2012-10-15, 09:11:04,VALID,920.356,VALID,0,VALID,81.1894,VALID,310.612,VALID,22.8634,VALID,179,VALID,0,
2012-10-15, 09:12:04,VALID,920.317,VALID,0,VALID,79.7486,VALID,315.447,VALID,22.9415,VALID,191,VALID,0,
2012-10-15, 09:13:04,VALID,920.364,VALID,0,VALID,83.1334,VALID,319.96,VALID,23.0178,VALID,191,VALID,0,
2012-10-15, 09:14:04,VALID,920.321,VALID,0,VALID,82.0508,VALID,332.853,VALID,23.0391,VALID,191,VALID,0,
2012-10-15, 09:15:04,VALID,920.342,VALID,0,VALID,80.3356,VALID,351.333,VALID,23.0391,VALID,158,VALID,0,
2012-10-15, 09:16:04,VALID,920.334,VALID,0,VALID,81.662,VALID,369.705,VALID,23.1367,VALID,203,VALID,0,
2012-10-15, 09:17:04,VALID,920.394,VALID,0,VALID,83.4078,VALID,386.143,VALID,23.1562,VALID,203,VALID,0,
2012-10-15, 09:18:04,VALID,920.414,VALID,0,VALID,79.192,VALID,399.681,VALID,23.1739,VALID,163,VALID,0,
2012-10-15, 09:19:04,VALID,920.334,VALID,0,VALID,79.5427,VALID,411.285,VALID,23.1935,VALID,158,VALID,0,
2012-10-15, 09:20:04,VALID,920.48,VALID,0,VALID,80.671,VALID,420.31,VALID,23.2715,VALID,158,VALID,0,
2012-10-15, 09:21:04,VALID,920.45,VALID,0,VALID,80.7548,VALID,428.153,VALID,23.449,VALID,158,VALID,0,
2012-10-15, 09:22:04,VALID,920.474,VALID,0,VALID,80.8997,VALID,435.674,VALID,23.449,VALID,268,VALID,0,
2012-10-15, 09:23:04,VALID,920.368,VALID,0,VALID,82.7293,VALID,439.972,VALID,23.252,VALID,256,VALID,0,
2012-10-15, 09:24:04,VALID,920.53,VALID,0,VALID,83.019,VALID,435.029,VALID,23.1757,VALID,256,VALID,0,
2012-10-15, 09:25:04,VALID,920.306,VALID,0,VALID,83.0571,VALID,436.856,VALID,23.2538,VALID,256,VALID,0,
2012-10-15, 09:26:04,VALID,920.827,VALID,0,VALID,82.8055,VALID,432.451,VALID,23.4685,VALID,256,VALID,0,
2012-10-15, 09:27:04,INVALID,915.256,VALID,0,VALID,80.3432,VALID,430.087,VALID,23.6052,VALID,148,VALID,0,
2012-10-15, 09:28:04,VALID,920.282,VALID,0,VALID,78.4068,VALID,428.046,VALID,23.5643,VALID,89,VALID,0,
2012-10-15, 09:29:04,VALID,920.197,VALID,0,VALID,77.9189,VALID,435.137,VALID,23.5839,VALID,88,VALID,0,
2012-10-15, 09:30:04,VALID,920.3,VALID,0,VALID,76.8593,VALID,426.434,VALID,23.6833,VALID,127,VALID,0,
2012-10-15, 09:31:04,VALID,920.361,VALID,0,VALID,78.1781,VALID,419.773,VALID,23.6424,VALID,119,VALID,0,
2012-10-15, 09:32:04,VALID,920.283,VALID,0,VALID,76.6382,VALID,418.483,VALID,23.6815,VALID,198,VALID,0,
2012-10-15, 09:33:04,VALID,920.27,VALID,0,VALID,75.4871,VALID,414.401,VALID,23.6034,VALID,139,VALID,0.0453125,
2012-10-15, 09:34:04,VALID,920.269,VALID,0,VALID,77.2786,VALID,406.128,VALID,23.5857,VALID,162,VALID,0,
2012-10-15, 09:35:04,VALID,920.183,VALID,0,VALID,77.9494,VALID,405.698,VALID,23.7028,VALID,214,VALID,0,
2012-10-15, 09:36:04,VALID,920.215,VALID,0,VALID,79.8705,VALID,412.681,VALID,23.7809,VALID,150,VALID,0,
2012-10-15, 09:37:04,VALID,920.185,VALID,0,VALID,77.4463,VALID,423.211,VALID,23.9371,VALID,210,VALID,0,
2012-10-15, 09:38:04,VALID,920.222,VALID,0,VALID,74.9534,VALID,434.062,VALID,23.9939,VALID,167,VALID,0,
2012-10-15, 09:39:04,VALID,920.143,VALID,0,VALID,75.8682,VALID,452.22,VALID,24.0524,VALID,214,VALID,0,
2012-10-15, 09:40:04,VALID,920.137,VALID,0,VALID,75.9902,VALID,465.865,VALID,24.1714,VALID,214,VALID,0,
2012-10-15, 09:41:04,VALID,920.196,VALID,0,VALID,73.9166,VALID,468.551,VALID,24.3276,VALID,188,VALID,0,
2012-10-15, 09:42:04,VALID,920.176,VALID,0,VALID,75.67,VALID,470.7,VALID,24.3667,VALID,186,VALID,0,
2012-10-15, 09:43:04,VALID,920.248,VALID,0,VALID,75.6014,VALID,477.146,VALID,24.5034,VALID,140,VALID,0,
2012-10-15, 09:44:04,VALID,920.173,VALID,0,VALID,75.5785,VALID,467.691,VALID,24.6596,VALID,140,VALID,0,
2012-10-15, 09:45:04,VALID,920.167,VALID,0,VALID,73.3754,VALID,471.129,VALID,24.7768,VALID,167,VALID,0,
2012-10-15, 09:46:04,VALID,920.206,VALID,0,VALID,73.1086,VALID,468.121,VALID,24.8159,VALID,187,VALID,0,
2012-10-15, 09:47:04,VALID,920.149,VALID,0,VALID,73.6651,VALID,486.494,VALID,24.8335,VALID,187,VALID,0,
2012-10-15, 09:48:04,VALID,920.199,VALID,0,VALID,75.6319,VALID,502.073,VALID,24.8726,VALID,119,VALID,0,
2012-10-15, 09:49:04,VALID,920.106,VALID,0,VALID,74.0157,VALID,520.445,VALID,24.7554,VALID,150,VALID,0,
2012-10-15, 09:50:04,VALID,920.142,VALID,0,VALID,73.0552,VALID,520.23,VALID,24.6577,VALID,129,VALID,0,
2012-10-15, 09:51:04,VALID,920.149,VALID,0,VALID,71.9346,VALID,525.817,VALID,24.6968,VALID,155,VALID,0,
2012-10-15, 09:52:04,VALID,920.136,VALID,0,VALID,71.9422,VALID,516.577,VALID,24.8354,VALID,132,VALID,0,
2012-10-15, 09:53:04,VALID,920.117,VALID,0,VALID,72.2014,VALID,505.081,VALID,24.9526,VALID,132,VALID,0,
2012-10-15, 09:54:04,VALID,920.099,VALID,0,VALID,72.0718,VALID,501.858,VALID,25.0679,VALID,148,VALID,0,
2012-10-15, 09:55:04,VALID,920.121,VALID,0,VALID,73.2839,VALID,501.858,VALID,25.2651,VALID,148,VALID,0,
2012-10-15, 09:56:04,VALID,920.07,VALID,0,VALID,70.9511,VALID,500.891,VALID,25.4604,VALID,148,VALID,0,
2012-10-15, 09:57:04,VALID,920.15,VALID,0,VALID,69.8839,VALID,504.759,VALID,25.6167,VALID,148,VALID,0,
2012-10-15, 09:58:04,VALID,920.34,VALID,0,VALID,70.8368,VALID,504.973,VALID,25.6733,VALID,148,VALID,0,
2012-10-15, 09:59:04,VALID,920.131,VALID,0,VALID,69.4722,VALID,499.924,VALID,25.7144,VALID,146,VALID,0,
2012-10-15, 10:00:04,VALID,920.145,VALID,0,VALID,70.1888,VALID,496.271,VALID,25.6343,VALID,159,VALID,0,
2012-10-15, 10:01:04,VALID,920.095,VALID,0,VALID,70.9511,VALID,498.849,VALID,25.6753,VALID,25,VALID,0,
2012-10-15, 10:02:04,VALID,920.142,VALID,0,VALID,68.0542,VALID,496.593,VALID,25.6538,VALID,29,VALID,0,
2012-10-15, 10:03:04,VALID,920.06,VALID,0,VALID,72.4148,VALID,497.99,VALID,25.5757,VALID,48,VALID,0,
2012-10-15, 10:04:04,VALID,920.165,VALID,0,VALID,69.5942,VALID,500.461,VALID,25.4389,VALID,48,VALID,0,
2012-10-15, 10:05:04,VALID,920.144,VALID,0,VALID,71.2942,VALID,496.378,VALID,25.3413,VALID,115,VALID,0,
2012-10-15, 10:06:04,VALID,920.197,VALID,0,VALID,69.1291,VALID,491.651,VALID,25.185,VALID,161,VALID,0,
2012-10-15, 10:07:04,VALID,920.11,VALID,0,VALID,70.6919,VALID,492.295,VALID,25.2846,VALID,157,VALID,0,
2012-10-15, 10:08:04,VALID,920.155,VALID,0,VALID,71.6906,VALID,496.593,VALID,25.398,VALID,71,VALID,0,
2012-10-15, 10:09:04,VALID,921.322,VALID,0,VALID,71.3094,VALID,499.279,VALID,25.6538,VALID,71,VALID,0,
2012-10-15, 10:10:04,VALID,920.114,VALID,0,VALID,71.0274,VALID,493.8,VALID,25.6343,VALID,100,VALID,0,
2012-10-15, 10:11:04,VALID,919.936,VALID,0,VALID,71.8354,VALID,487.89,VALID,25.5366,VALID,151,VALID,0,
2012-10-15, 10:12:04,VALID,920.32,VALID,0,VALID,70.2269,VALID,474.46,VALID,25.5171,VALID,192,VALID,0,
2012-10-15, 10:13:04,VALID,920.184,VALID,0,VALID,71.8202,VALID,481.874,VALID,25.5171,VALID,175,VALID,0,
2012-10-15, 10:14:04,VALID,919.945,VALID,0,VALID,71.1875,VALID,495.411,VALID,25.5952,VALID,81,VALID,0,
2012-10-15, 10:15:04,VALID,920.038,VALID,0,VALID,68.3515,VALID,468.336,VALID,25.5933,VALID,202,VALID,0,
2012-10-15, 10:16:04,VALID,919.938,VALID,0,VALID,68.3058,VALID,447.6,VALID,25.5737,VALID,211,VALID,0,
2012-10-15, 10:17:04,VALID,919.986,VALID,0,VALID,67.9551,VALID,538.495,VALID,25.5737,VALID,170,VALID,0,
2012-10-15, 10:18:04,VALID,920.001,VALID,0,VALID,70.2955,VALID,533.66,VALID,25.4351,VALID,160,VALID,0,
2012-10-15, 10:19:04,VALID,920.032,VALID,0,VALID,68.6107,VALID,534.842,VALID,25.4351,VALID,107,VALID,0,
2012-10-15, 10:20:04,VALID,919.756,VALID,0,VALID,69.2511,VALID,536.131,VALID,25.4175,VALID,106,VALID,0,
2012-10-15, 10:21:04,VALID,920.146,VALID,0,VALID,70.1049,VALID,536.024,VALID,25.3179,VALID,110,VALID,0,
2012-10-15, 10:22:04,VALID,920.01,VALID,0,VALID,72.331,VALID,519.585,VALID,25.3003,VALID,32,VALID,0,
2012-10-15, 10:23:04,VALID,919.848,VALID,0,VALID,70.1126,VALID,528.503,VALID,25.3394,VALID,62,VALID,0,
2012-10-15, 10:24:04,VALID,919.901,VALID,0,VALID,71.9574,VALID,522.916,VALID,25.2417,VALID,103,VALID,0,
2012-10-15, 10:25:04,VALID,919.954,VALID,0,VALID,69.7543,VALID,522.594,VALID,25.1422,VALID,91,VALID,0.0542969,
2012-10-15, 10:26:04,INVALID,914.031,VALID,0,VALID,70.7834,VALID,501.32,VALID,25.0074,VALID,108,VALID,0.0820313,
2012-10-15, 10:27:04,VALID,919.954,VALID,0,VALID,68.9462,VALID,465.543,VALID,24.9078,VALID,138,VALID,0,
2012-10-15, 10:28:04,VALID,919.879,VALID,0,VALID,71.1341,VALID,445.881,VALID,24.9859,VALID,133,VALID,0,
2012-10-15, 10:29:04,VALID,920.035,VALID,0,VALID,68.2829,VALID,430.839,VALID,25.0445,VALID,99,VALID,0,
2012-10-15, 10:30:04,VALID,919.941,VALID,0,VALID,71.6144,VALID,416.442,VALID,24.9469,VALID,92,VALID,0.458984,
2012-10-15, 10:31:04,VALID,920.019,VALID,0,VALID,73.1543,VALID,409.995,VALID,24.9469,VALID,129,VALID,0,
2012-10-15, 10:32:04,VALID,920.079,VALID,0,VALID,70.6614,VALID,408.921,VALID,25.0659,VALID,103,VALID,0,
2012-10-15, 10:33:04,VALID,920.01,VALID,0,VALID,73.909,VALID,406.987,VALID,25.0659,VALID,65,VALID,0,
2012-10-15, 10:34:04,VALID,919.967,VALID,0,VALID,72.4987,VALID,406.342,VALID,25.0659,VALID,85,VALID,0,
2012-10-15, 10:35:04,VALID,919.859,VALID,0,VALID,70.5014,VALID,407.954,VALID,25.0269,VALID,65,VALID,0,
2012-10-15, 10:36:04,VALID,919.995,VALID,0,VALID,72.7579,VALID,407.417,VALID,25.0269,VALID,73,VALID,0,
2012-10-15, 10:37:04,VALID,919.987,VALID,0,VALID,70.1888,VALID,405.805,VALID,24.9683,VALID,106,VALID,0.155859,
2012-10-15, 10:38:04,VALID,919.937,VALID,0,VALID,70.8825,VALID,405.483,VALID,24.8726,VALID,36,VALID,0.383594,
2012-10-15, 10:39:04,VALID,919.849,VALID,0,VALID,71.3552,VALID,407.309,VALID,24.9311,VALID,15,VALID,0,
2012-10-15, 10:40:04,VALID,919.886,VALID,0,VALID,73.9548,VALID,411.607,VALID,25.0659,VALID,80,VALID,0,
2012-10-15, 10:41:04,VALID,919.719,VALID,0,VALID,69.9753,VALID,419.343,VALID,25.2046,VALID,54,VALID,0,
2012-10-15, 10:42:04,VALID,919.514,VALID,0,VALID,69.4569,VALID,433.095,VALID,25.0855,VALID,88,VALID,0.685547,
2012-10-15, 10:43:04,VALID,919.957,VALID,0,VALID,68.8318,VALID,440.831,VALID,24.9097,VALID,70,VALID,3.11445,
2012-10-15, 10:44:04,VALID,919.928,VALID,0,VALID,72.7579,VALID,468.121,VALID,24.8707,VALID,187,VALID,0.745703,
2012-10-15, 10:45:04,VALID,919.622,VALID,0,VALID,72.8646,VALID,464.038,VALID,25.0483,VALID,236,VALID,0.217969,
2012-10-15, 10:46:04,VALID,919.446,VALID,0,VALID,71.5,VALID,492.188,VALID,25.2436,VALID,89,VALID,0,
2012-10-15, 10:47:04,VALID,919.604,VALID,0,VALID,71.2789,VALID,490.899,VALID,25.3413,VALID,73,VALID,0,
2012-10-15, 10:48:04,VALID,920.838,VALID,0,VALID,70.8749,VALID,478.865,VALID,25.3022,VALID,57,VALID,0.0105469,